Location: Newark
(52.2090°N, 4.1550°W)
Time: 02:53:43
(UTC+00:00)

Explorer 7 - Pass Details

Date: 21 September 2019
Orbit: 485 x 680 km, 50.3° (Epoch: 19 October)

Event Time Altitude Azimuth Distance (km) Brightness Sun altitude
Rises 05:12:30 0° 280° (W) 3,012 - -8.1°
Exits shadow 05:15:28 - 262° (W) 2,151 9.1 -7.6°
Reaches altitude 10° 05:15:38 10° 260° (W) 2,111 9.1 -7.6°
Maximum altitude 05:18:36 16° 222° (SW) 1,732 8.9 -7.2°
Drops below altitude 10° 05:21:36 10° 185° (S) 2,112 9.6 -6.7°
Sets 05:24:44 0° 164° (SSE) 3,013 10.7 -6.2°
